Regional Weather Roundup
Issued by NWS

Home | Current Version | Previous Version | Graphics & Text | Print | Product List | Glossary On
Versions: 1 2 3 4 5 6 7 8 9 10 11 12 13 14 15 16 17 18 19 20 21 22 23 24 25 26 27 28 29 30 31 32 33 34 35 36 37 38 39 40 41 42 43 44 45 46 47 48 49 50
721
ASUS45 KABQ 210901
RWRNM
NEW MEXICO REGIONAL WEATHER ROUNDUP
NATIONAL WEATHER SERVICE ALBUQUERQUE NM
300 AM MDT MON MAY 21 2018

NOTE: "FAIR" MEANS FEW OR NO CLOUDS BELOW 12,000 FEET AGL WITH NO
       SIGNIFICANT WEATHER OR OBSTRUCTIONS TO VISION.

      THIS PRODUCT IS RELEASED AS TWO VERSIONS.  ONE VERSION NEAR
      THE TOP OF THE HOUR CONTAINING PRELIMINARY DATA FROM ALBUQUERQUE
      AND OTHER STATIONS.  A FINAL VERSION WITH ADDITIONAL DATA IS
      ISSUED ABOUT 10 MINUTES AFTER THE HOUR.

NMZ501-503-504-510>518-211000-
NORTHWEST PLATEAU/NORTHCENTRAL MOUNTAINS

CITY           SKY/WX    TMP DP  RH WIND       PRES   REMARKS
FARMINGTON     FAIR      58  27  30 E8        29.98S
LOS ALAMOS     CLOUDY    56  46  68 S7        30.20S
SANTA FE       FAIR      57  48  72 SE15      30.13F
TAOS           FAIR      52  40  63 E6        30.20S
ANGEL FIRE     FAIR      46  41  85 S7        30.27F

$$
NMZ402-403-502-505>509-211000-
WESTCENTRAL MOUNTAINS/SOUTHWEST MOUNTAINS

CITY           SKY/WX    TMP DP  RH WIND       PRES   REMARKS
GALLUP         FAIR      48   9  20 E5        30.07S
GRANTS         FAIR      51   5  15 S5        30.10S
SILVER CITY    FAIR      61  42  49 CALM      30.04S

$$
NMZ407-409-411-412-211000-
SOUTHERN DESERTS

CITY           SKY/WX    TMP DP  RH WIND       PRES   REMARKS
DEMING         FAIR      70  50  49 N9        29.97S
LAS CRUCES     FAIR      68  52  55 SE12      30.01S
ALAMOGORDO     FAIR      66  46  48 N9        30.00S
T OR C         FAIR      70  47  43 CALM      30.01F

$$
NMZ519>523-211000-
CENTRAL VALLEYS/CENTRAL HIGHLANDS

CITY           SKY/WX    TMP DP  RH WIND       PRES   REMARKS
ALBUQUERQUE    FAIR      63  47  55 E8        30.06R
DOUBLE EAGLE   FAIR      56  41  58 CALM      30.09S
MORIARTY ARPT  FAIR      53  46  79 CALM      30.15F
CLINES CORNERS MOCLDY    51  46  83 E14       30.19F
BELEN          FAIR      64  44  48 SE13      30.03R
SOCORRO        FAIR      65  44  46 S7        30.02S

$$
NMZ524>526-539-540-211000-
SOUTHCENTRAL MOUNTAINS

CITY           SKY/WX    TMP DP  RH WIND       PRES   REMARKS
RUIDOSO        CLOUDY    54  50  87 SE3       30.19F

$$
NMZ527>531-211000-
NORTHEAST HIGHLANDS/NORTHEAST PLAINS

CITY           SKY/WX    TMP DP  RH WIND       PRES   REMARKS
LAS VEGAS      CLOUDY    52  49  89 SE7       30.22F
RATON          CLOUDY    52  47  83 SW6       30.19F
CLAYTON        FAIR      48  46  93 SE9       30.14F

$$
NMZ532>537-211000-
EASTCENTRAL PLAINS

CITY           SKY/WX    TMP DP  RH WIND       PRES   REMARKS
SANTA ROSA     CLOUDY    58  51  77 E7        30.12S
TUCUMCARI      MOCLDY    57  53  86 CALM      30.10R
CANNON AFB     NOT AVBL
CLOVIS AIRPORT FAIR      52  51  97 E5        30.12F

$$
NMZ028-029-538-211000-
SOUTHEAST PLAINS

CITY           SKY/WX    TMP DP  RH WIND       PRES   REMARKS
ROSWELL        CLOUDY    64  56  75 SW7       30.05F
ARTESIA        CLOUDY    64  61  88 SE12      30.05F
CARLSBAD       FAIR      64  58  80 CALM      30.02F
HOBBS          FAIR      59  55  88 E7        30.06S


$$




USA.gov is the U.S. government's official web portal to all federal, state and local government web resources and services.